Location: *
(48.8489°N, 2.3218°E)
Time: 21:50:46
(UTC+00:00)

Cosmos 405 - Pass Details

Date: 23 August 2019
Orbit: 452 x 467 km, 81.3° (Epoch: 23 October)

Event Time Altitude Azimuth Distance (km) Brightness Sun altitude
Rises 21:44:17 0° 350° (N) 2,522 7.8 -23.5°
Reaches altitude 10° 21:46:23 10° 352° (N) 1,639 6.6 -23.7°
Enters shadow 21:49:03 46° 6° (N) 639 3.9 -23.9°
